Location: Nied?wied?
(53.3665°N, 14.8184°E)
Time: 04:47:46
(UTC+00:00)

ISS - Visible Passes

Search period start: 14 May 2021 00:00
Search period end: 24 May 2021 00:00
Orbit: 417 x 422 km, 51.6° (Epoch: 13 May)

Date Brightness Start Highest point End Pass type
(mag) Time Alt. Az. Time Alt. Az. Time Alt. Az.
14 May -3.6 00:52:37 10° W 00:55:53 49° SSW 00:59:11 10° ESE visible
14 May -2.8 20:52:33 10° SSW 20:55:23 25° SSE 20:58:14 10° E visible
14 May -3.8 22:28:30 10° WSW 22:31:50 59° S 22:35:11 10° E visible
15 May -3.8 00:05:11 10° W 00:08:31 57° S 00:11:50 10° ESE visible
15 May -2.6 01:42:09 10° W 01:44:56 24° SSW 01:47:42 10° SSE visible
15 May -2.3 20:05:39 10° SSW 20:08:06 19° SSE 20:10:35 10° E visible
15 May -3.7 21:41:09 10° WSW 21:44:26 51° SSE 21:47:44 10° E visible
15 May -3.9 23:17:45 10° W 23:21:06 64° S 23:24:27 10° ESE visible
16 May -3.0 00:54:35 10° W 00:57:37 31° SSW 01:00:39 10° SE visible
16 May -3.4 20:53:51 10° SW 20:57:04 42° SSE 21:00:17 10° E visible
16 May -3.9 22:30:19 10° W 22:33:40 66° S 22:37:03 10° E visible
17 May -3.4 00:07:05 10° W 00:10:17 40° SSW 00:13:28 10° SE visible
17 May -1.9 01:45:02 10° WSW 01:46:26 13° SW 01:47:59 10° SSW visible
17 May -3.1 20:06:38 10° SW 20:09:42 33° SSE 20:12:47 10° E visible
17 May -3.9 21:42:55 10° WSW 21:46:15 65° S 21:49:36 10° E visible
17 May -3.6 23:19:37 10° W 23:22:54 49° SSW 23:22:54 49° SSW visible
18 May -3.8 20:55:30 10° WSW 20:58:50 59° S 21:02:10 10° E visible
18 May -3.8 22:32:10 10° W 22:35:30 57° SSW 22:36:28 39° SE visible
19 May -1.3 00:09:09 10° W 00:09:24 11° W 00:09:24 11° W visible
19 May -3.6 20:08:08 10° WSW 20:11:26 51° SSE 20:14:43 10° E visible
19 May -3.8 21:44:44 10° W 21:48:05 64° S 21:50:18 19° ESE visible
19 May -2.2 23:21:34 10° W 23:23:13 22° WSW 23:23:13 22° WSW visible
20 May -3.8 20:57:18 10° W 21:00:39 66° S 21:04:00 10° E visible
20 May -3.3 22:34:04 10° W 22:37:08 39° SSW 22:37:08 39° SSW visible
21 May -3.8 20:09:52 10° WSW 20:13:13 65° S 20:16:34 10° E visible
21 May -3.5 21:46:35 10° W 21:49:52 49° SSW 21:51:05 31° SE visible
21 May -1.2 23:23:50 10° WSW 23:24:01 11° WSW 23:24:01 11° WSW visible
22 May -3.7 20:59:07 10° W 21:02:27 57° S 21:05:04 15° ESE visible
22 May -2.1 22:36:07 10° W 22:38:00 21° SW 22:38:00 21° SW visible
23 May -3.7 20:11:40 10° W 20:15:01 63° S 20:18:22 10° ESE visible
23 May -2.9 21:48:30 10° W 21:51:32 31° SSW 21:52:01 29° S visible
